ONEWEB-0131 (47277 NORAD) Tracking and Keplerian Element Data

This shows tracking and keplerian element data for the satellite.

Feedback or suggestion? Click here.




ElementValue
Catalog47277
NameONEWEB-0131
Epoch Orbit514
Epoch Day21.16668981
Epoch Year2021
RAAN27.8522
Inclination87.4347
Eccentricity0.0009076
Argument of Perigee140.7035
Mean Anonmoly156.3838
Mean Motion15.03112148
Decay Rate-0.01490545
L11 47277U 20100V 21021.16668981 -.01490545 00000-0 -12119+0 0 9994
L22 47277 87.4347 27.8522 0009076 140.7035 156.3838 15.03112148 5140

Live tracking and technical data element details for ONEWEB-0131 (NORAD 47277). ONEWEB-0131 can be tracked NOW for your location showing map with azimuth and elevation plus other details from your city location.

Track the satellite on the map from your city or location and see movement details for azimuth, elevation, latitude, longitude, range, height, and movement on the map or in text.







IsCatalogInMostPopularTable: catalog: 47277, numindb: 14
Update: records affected: 1



GetName: 47277 ONEWEB-0131

Hit Count: updated at: Sat, 23 Jan 2021 18:16:09 GMT